Time,TemperatureF,DewpointF,PressureIn,WindDirection,WindDirectionDegrees,WindSpeedMPH,WindSpeedGustMPH,Humidity,HourlyPrecipIn,Conditions,Clouds,dailyrainin,SoftwareType,DateUTC
2013-04-26 00:01:00,40.1,33.1,30.20,NE,38,0.0,0.0,76,0.00,CLR,,0.00,WeatherDisplay:10.37,2013-04-26 04:01:00,
2013-04-26 00:02:00,39.9,32.9,30.20,NE,38,0.0,0.0,76,0.00,CLR,,0.00,WeatherDisplay:10.37,2013-04-26 04:02:00,
2013-04-26 00:07:00,40.1,33.1,30.20,NE,38,0.0,0.0,76,0.00,CLR,,0.00,WeatherDisplay:10.37,2013-04-26 04:07:00,
2013-04-26 00:12:00,40.1,34.1,30.20,NE,38,0.0,0.0,79,0.00,CLR,,0.00,WeatherDisplay:10.37,2013-04-26 04:12:00,
2013-04-26 00:17:00,40.1,34.4,30.20,NE,38,0.0,0.0,80,0.00,CLR,,0.00,WeatherDisplay:10.37,2013-04-26 04:17:00,
2013-04-26 00:23:00,39.9,34.9,30.20,NE,38,0.0,0.0,82,0.00,CLR,,0.00,WeatherDisplay:10.37,2013-04-26 04:23:00,
2013-04-26 00:28:00,39.8,35.1,30.20,NE,38,0.0,0.0,83,0.00,CLR,,0.00,WeatherDisplay:10.37,2013-04-26 04:28:00,
2013-04-26 00:33:00,39.5,34.8,30.21,NE,38,0.0,0.0,83,0.00,CLR,,0.00,WeatherDisplay:10.37,2013-04-26 04:33:00,
2013-04-26 00:38:00,39.3,34.6,30.21,NE,38,0.0,0.0,83,0.00,CLR,,0.00,WeatherDisplay:10.37,2013-04-26 04:38:00,
2013-04-26 00:44:00,39.2,34.5,30.21,NE,38,0.0,0.0,83,0.00,CLR,,0.00,WeatherDisplay:10.37,2013-04-26 04:44:00,
2013-04-26 00:49:00,39.1,34.4,30.21,NE,38,0.0,0.0,83,0.00,CLR,,0.00,WeatherDisplay:10.37,2013-04-26 04:49:00,
2013-04-26 00:54:00,39.1,34.4,30.21,NE,38,0.0,0.0,83,0.00,CLR,,0.00,WeatherDisplay:10.37,2013-04-26 04:54:00,
2013-04-26 00:59:00,38.9,34.2,30.21,NE,38,0.0,0.0,83,0.00,CLR,,0.00,WeatherDisplay:10.37,2013-04-26 04:59:00,
2013-04-26 01:04:00,38.8,34.4,30.21,NE,38,0.0,0.0,84,0.00,CLR,,0.00,WeatherDisplay:10.37,2013-04-26 05:04:00,
2013-04-26 01:09:00,38.6,34.2,30.21,NE,38,0.0,0.0,84,0.00,CLR,,0.00,WeatherDisplay:10.37,2013-04-26 05:09:00,
2013-04-26 01:14:00,38.3,33.6,30.21,NE,38,0.0,0.0,83,0.00,CLR,,0.00,WeatherDisplay:10.37,2013-04-26 05:14:00,
2013-04-26 01:19:00,38.0,33.0,30.21,NE,38,0.7,1.1,82,0.00,CLR,,0.00,WeatherDisplay:10.37,2013-04-26 05:19:00,
2013-04-26 01:25:00,37.8,32.5,30.21,NE,38,0.0,1.1,81,0.00,CLR,,0.00,WeatherDisplay:10.37,2013-04-26 05:25:00,
2013-04-26 01:30:00,37.6,32.6,30.21,NE,38,0.0,0.0,82,0.00,CLR,,0.00,WeatherDisplay:10.37,2013-04-26 05:30:00,
2013-04-26 01:35:00,37.3,32.6,30.21,NE,38,0.0,0.0,83,0.00,CLR,,0.00,WeatherDisplay:10.37,2013-04-26 05:35:00,
2013-04-26 01:40:00,37.2,33.1,30.21,NE,38,0.0,0.0,85,0.00,CLR,,0.00,WeatherDisplay:10.37,2013-04-26 05:40:00,
2013-04-26 01:45:00,37.2,33.4,30.21,NE,38,0.0,0.0,86,0.00,CLR,,0.00,WeatherDisplay:10.37,2013-04-26 05:45:00,
2013-04-26 01:50:00,36.9,32.8,30.21,NE,38,0.0,0.0,85,0.00,CLR,,0.00,WeatherDisplay:10.37,2013-04-26 05:50:00,
2013-04-26 01:55:00,36.6,31.9,30.22,NE,38,0.0,0.0,83,0.00,CLR,,0.00,WeatherDisplay:10.37,2013-04-26 05:55:00,
2013-04-26 02:01:00,36.6,31.9,30.22,NE,38,0.0,0.0,83,0.00,CLR,,0.00,WeatherDisplay:10.37,2013-04-26 06:01:00,
2013-04-26 02:06:00,36.6,31.9,30.22,NE,38,0.0,0.0,83,0.00,CLR,,0.00,WeatherDisplay:10.37,2013-04-26 06:06:00,
2013-04-26 02:11:00,36.8,32.4,30.22,NE,38,0.0,0.0,84,0.00,CLR,,0.00,WeatherDisplay:10.37,2013-04-26 06:11:00,
2013-04-26 02:16:00,36.8,32.4,30.22,NE,38,0.0,0.0,84,0.00,CLR,,0.00,WeatherDisplay:10.37,2013-04-26 06:16:00,
2013-04-26 02:21:00,36.6,31.9,30.22,NE,38,0.0,0.0,83,0.00,CLR,,0.00,WeatherDisplay:10.37,2013-04-26 06:21:00,
2013-04-26 02:26:00,36.6,31.6,30.22,NE,38,0.0,0.0,82,0.00,CLR,,0.00,WeatherDisplay:10.37,2013-04-26 06:26:00,
2013-04-26 02:31:00,36.6,31.6,30.22,NE,38,0.0,0.0,82,0.00,CLR,,0.00,WeatherDisplay:10.37,2013-04-26 06:31:00,
2013-04-26 02:37:00,36.6,31.9,30.22,NE,38,0.0,0.0,83,0.00,CLR,,0.00,WeatherDisplay:10.37,2013-04-26 06:37:00,
2013-04-26 02:42:00,36.6,32.2,30.22,NE,38,0.0,0.0,84,0.00,CLR,,0.00,WeatherDisplay:10.37,2013-04-26 06:42:00,
2013-04-26 02:47:00,36.2,31.8,30.22,NE,38,0.0,0.0,84,0.00,CLR,,0.00,WeatherDisplay:10.37,2013-04-26 06:47:00,
2013-04-26 02:52:00,35.8,31.4,30.22,NE,38,0.0,0.0,84,0.00,CLR,,0.00,WeatherDisplay:10.37,2013-04-26 06:52:00,
2013-04-26 02:58:00,35.6,31.2,30.22,NE,38,0.0,0.0,84,0.00,CLR,,0.00,WeatherDisplay:10.37,2013-04-26 06:58:00,
2013-04-26 03:03:00,35.6,31.5,30.22,NE,38,0.0,0.0,85,0.00,CLR,,0.00,WeatherDisplay:10.37,2013-04-26 07:03:00,
2013-04-26 03:08:00,35.6,31.5,30.22,NE,38,0.0,0.0,85,0.00,CLR,,0.00,WeatherDisplay:10.37,2013-04-26 07:08:00,
2013-04-26 03:13:00,35.6,31.5,30.22,NE,38,0.0,0.0,85,0.00,CLR,,0.00,WeatherDisplay:10.37,2013-04-26 07:13:00,
2013-04-26 03:18:00,35.5,31.7,30.22,NE,38,0.0,0.0,86,0.00,CLR,,0.00,WeatherDisplay:10.37,2013-04-26 07:18:00,
2013-04-26 03:23:00,34.7,30.7,30.22,NE,38,0.0,0.0,85,0.00,CLR,,0.00,WeatherDisplay:10.37,2013-04-26 07:23:00,
2013-04-26 03:29:00,34.4,30.6,30.22,NE,38,0.0,0.0,86,0.00,CLR,,0.00,WeatherDisplay:10.37,2013-04-26 07:29:00,
2013-04-26 03:34:00,34.6,30.8,30.22,NE,38,0.0,0.0,86,0.00,CLR,,0.00,WeatherDisplay:10.37,2013-04-26 07:34:00,
2013-04-26 03:39:00,34.7,31.2,30.22,NE,38,0.0,0.0,87,0.00,CLR,,0.00,WeatherDisplay:10.37,2013-04-26 07:39:00,
2013-04-26 03:44:00,34.7,31.5,30.23,NE,38,0.0,0.0,88,0.00,CLR,,0.00,WeatherDisplay:10.37,2013-04-26 07:44:00,
2013-04-26 03:50:00,34.6,31.4,30.23,NE,38,0.0,0.0,88,0.00,CLR,,0.00,WeatherDisplay:10.37,2013-04-26 07:50:00,
2013-04-26 03:55:00,34.4,31.5,30.23,NE,38,0.0,0.0,89,0.00,CLR,,0.00,WeatherDisplay:10.37,2013-04-26 07:55:00,
2013-04-26 04:00:00,34.6,31.7,30.23,NE,38,0.0,0.0,89,0.00,CLR,,0.00,WeatherDisplay:10.37,2013-04-26 08:00:00,
2013-04-26 04:05:00,34.7,32.1,30.23,NE,38,0.0,0.0,90,0.00,CLR,,0.00,WeatherDisplay:10.37,2013-04-26 08:05:00,
2013-04-26 04:11:00,34.7,32.3,30.23,NE,38,0.0,0.0,91,0.00,CLR,,0.00,WeatherDisplay:10.37,2013-04-26 08:11:00,
2013-04-26 04:16:00,34.6,32.0,30.24,NE,38,0.0,0.0,90,0.00,CLR,,0.00,WeatherDisplay:10.37,2013-04-26 08:16:00,
2013-04-26 04:21:00,34.4,31.5,30.24,NE,38,0.0,0.0,89,0.00,CLR,,0.00,WeatherDisplay:10.37,2013-04-26 08:21:00,
2013-04-26 04:26:00,34.3,31.7,30.24,NE,38,0.0,0.0,90,0.00,CLR,,0.00,WeatherDisplay:10.37,2013-04-26 08:26:00,
2013-04-26 04:31:00,34.1,31.7,30.24,NE,38,0.0,0.0,91,0.00,CLR,,0.00,WeatherDisplay:10.37,2013-04-26 08:31:00,
2013-04-26 04:37:00,33.4,30.8,30.24,NE,38,0.0,0.0,90,0.00,CLR,,0.00,WeatherDisplay:10.37,2013-04-26 08:37:00,
2013-04-26 04:42:00,33.2,30.6,30.24,NE,38,0.0,0.0,90,0.00,CLR,,0.00,WeatherDisplay:10.37,2013-04-26 08:42:00,
2013-04-26 04:47:00,33.2,30.6,30.25,NE,38,0.0,0.0,90,0.00,CLR,,0.00,WeatherDisplay:10.37,2013-04-26 08:47:00,
2013-04-26 04:52:00,33.4,30.8,30.25,NE,38,0.0,0.0,90,0.00,CLR,,0.00,WeatherDisplay:10.37,2013-04-26 08:52:00,
2013-04-26 04:57:00,33.5,30.9,30.25,NE,38,0.0,0.0,90,0.00,CLR,,0.00,WeatherDisplay:10.37,2013-04-26 08:57:00,
2013-04-26 05:03:00,33.5,30.9,30.25,NE,38,0.0,0.0,90,0.00,CLR,,0.00,WeatherDisplay:10.37,2013-04-26 09:03:00,
2013-04-26 05:08:00,33.8,30.9,30.25,NE,38,0.0,0.0,89,0.00,CLR,,0.00,WeatherDisplay:10.37,2013-04-26 09:08:00,
2013-04-26 05:13:00,33.7,30.5,30.25,NE,38,0.0,0.0,88,0.00,CLR,,0.00,WeatherDisplay:10.37,2013-04-26 09:13:00,
2013-04-26 05:18:00,33.1,29.9,30.25,NE,38,0.0,0.0,88,0.00,CLR,,0.00,WeatherDisplay:10.37,2013-04-26 09:18:00,
2013-04-26 05:23:00,32.8,29.9,30.25,NE,38,0.0,0.0,89,0.00,CLR,,0.00,WeatherDisplay:10.37,2013-04-26 09:23:00,
2013-04-26 05:28:00,32.8,30.2,30.26,NE,38,0.0,0.0,90,0.00,CLR,,0.00,WeatherDisplay:10.37,2013-04-26 09:28:00,
2013-04-26 05:34:00,32.9,30.6,30.26,NE,38,0.0,0.0,91,0.00,CLR,,0.00,WeatherDisplay:10.37,2013-04-26 09:34:00,
2013-04-26 05:39:00,32.8,30.5,30.26,NE,38,0.0,0.0,91,0.00,CLR,,0.00,WeatherDisplay:10.37,2013-04-26 09:39:00,
2013-04-26 05:44:00,32.8,30.5,30.26,NE,38,0.0,0.0,91,0.00,CLR,,0.00,WeatherDisplay:10.37,2013-04-26 09:44:00,
2013-04-26 05:49:00,32.9,30.8,30.27,NE,38,0.0,0.0,92,0.00,CLR,,0.00,WeatherDisplay:10.37,2013-04-26 09:49:00,
2013-04-26 05:54:00,32.8,30.7,30.27,NE,38,0.0,0.0,92,0.00,CLR,,0.00,WeatherDisplay:10.37,2013-04-26 09:54:00,
2013-04-26 05:59:00,32.7,30.6,30.27,NE,38,0.0,0.0,92,0.00,CLR,,0.00,WeatherDisplay:10.37,2013-04-26 09:59:00,
2013-04-26 06:05:00,32.5,30.2,30.27,NE,38,0.0,0.0,91,0.00,CLR,,0.00,WeatherDisplay:10.37,2013-04-26 10:05:00,
2013-04-26 06:10:00,32.5,30.2,30.28,NE,38,0.0,0.0,91,0.00,CLR,,0.00,WeatherDisplay:10.37,2013-04-26 10:10:00,
2013-04-26 06:15:00,32.5,30.4,30.28,NE,38,0.0,0.0,92,0.00,CLR,,0.00,WeatherDisplay:10.37,2013-04-26 10:15:00,
2013-04-26 06:20:00,32.5,30.4,30.28,NE,38,0.0,0.0,92,0.00,CLR,,0.00,WeatherDisplay:10.37,2013-04-26 10:20:00,
2013-04-26 06:25:00,32.8,31.0,30.28,NE,38,0.0,0.0,93,0.00,CLR,,0.00,WeatherDisplay:10.37,2013-04-26 10:25:00,
2013-04-26 06:30:00,32.9,31.1,30.28,NE,38,0.0,0.0,93,0.00,CLR,,0.00,WeatherDisplay:10.37,2013-04-26 10:30:00,
2013-04-26 06:35:00,32.7,30.6,30.29,NE,38,0.0,0.0,92,0.00,CLR,,0.00,WeatherDisplay:10.37,2013-04-26 10:35:00,
2013-04-26 06:41:00,32.7,30.6,30.29,NE,38,0.0,0.0,92,0.00,CLR,,0.00,WeatherDisplay:10.37,2013-04-26 10:41:00,
2013-04-26 06:46:00,32.7,30.6,30.30,NE,38,0.0,0.0,92,0.00,CLR,,0.00,WeatherDisplay:10.37,2013-04-26 10:46:00,
2013-04-26 06:51:00,32.9,30.8,30.30,NE,38,0.0,0.0,92,0.00,CLR,,0.00,WeatherDisplay:10.37,2013-04-26 10:51:00,
2013-04-26 06:56:00,33.2,31.1,30.30,NE,38,0.0,0.0,92,0.00,CLR,,0.00,WeatherDisplay:10.37,2013-04-26 10:56:00,
2013-04-26 07:01:00,33.7,31.6,30.30,NE,38,0.0,0.0,92,0.00,CLR,,0.00,WeatherDisplay:10.37,2013-04-26 11:01:00,
2013-04-26 07:06:00,34.0,31.6,30.30,NE,38,0.0,0.0,91,0.00,CLR,,0.00,WeatherDisplay:10.37,2013-04-26 11:06:00,
2013-04-26 07:11:00,34.4,32.0,30.30,NE,38,0.0,0.0,91,0.00,CLR,,0.00,WeatherDisplay:10.37,2013-04-26 11:11:00,
2013-04-26 07:17:00,35.0,32.4,30.30,NE,38,0.0,1.1,90,0.00,CLR,,0.00,WeatherDisplay:10.37,2013-04-26 11:17:00,
2013-04-26 07:22:00,35.5,32.6,30.30,NE,38,0.0,0.0,89,0.00,CLR,,0.00,WeatherDisplay:10.37,2013-04-26 11:22:00,
2013-04-26 07:27:00,36.0,33.4,30.30,NE,38,0.0,0.0,90,0.00,CLR,,0.00,WeatherDisplay:10.37,2013-04-26 11:27:00,
2013-04-26 07:32:00,36.5,33.6,30.30,NE,38,0.0,0.0,89,0.00,CLR,,0.00,WeatherDisplay:10.37,2013-04-26 11:32:00,
2013-04-26 07:37:00,36.9,33.4,30.31,NNE,24,0.5,3.5,87,0.00,CLR,,0.00,WeatherDisplay:10.37,2013-04-26 11:37:00,
2013-04-26 07:42:00,37.3,32.6,30.31,ENE,77,2.9,3.5,83,0.00,CLR,,0.00,WeatherDisplay:10.37,2013-04-26 11:42:00,
2013-04-26 07:48:00,37.8,32.8,30.32,NE,44,1.7,3.5,82,0.00,CLR,,0.00,WeatherDisplay:10.37,2013-04-26 11:48:00,
2013-04-26 07:53:00,38.3,33.0,30.32,NE,44,0.0,2.3,81,0.00,CLR,,0.00,WeatherDisplay:10.37,2013-04-26 11:53:00,
2013-04-26 07:58:00,39.1,33.5,30.32,East,98,1.0,3.5,80,0.00,CLR,,0.00,WeatherDisplay:10.37,2013-04-26 11:58:00,
2013-04-26 08:03:00,39.5,32.9,30.32,East,98,0.0,1.1,77,0.00,CLR,,0.00,WeatherDisplay:10.37,2013-04-26 12:03:00,
2013-04-26 08:09:00,39.9,32.3,30.32,East,98,0.0,0.0,74,0.00,CLR,,0.00,WeatherDisplay:10.37,2013-04-26 12:09:00,
2013-04-26 08:14:00,40.5,32.5,30.32,East,98,0.0,0.0,73,0.00,CLR,,0.00,WeatherDisplay:10.37,2013-04-26 12:14:00,
2013-04-26 08:19:00,41.2,32.5,30.32,East,98,0.0,0.0,71,0.00,CLR,,0.00,WeatherDisplay:10.37,2013-04-26 12:19:00,
2013-04-26 08:24:00,42.1,33.0,30.32,NW,325,0.5,2.3,70,0.00,CLR,,0.00,WeatherDisplay:10.37,2013-04-26 12:24:00,
2013-04-26 08:29:00,43.1,32.5,30.32,WNW,303,0.5,2.3,66,0.00,CLR,,0.00,WeatherDisplay:10.37,2013-04-26 12:29:00,
2013-04-26 08:35:00,44.3,32.1,30.32,NNE,25,3.4,4.0,62,0.00,CLR,,0.00,WeatherDisplay:10.37,2013-04-26 12:35:00,
2013-04-26 08:40:00,45.7,31.8,30.32,NE,34,1.9,6.9,58,0.00,CLR,,0.00,WeatherDisplay:10.37,2013-04-26 12:40:00,
2013-04-26 08:45:00,46.5,32.1,30.32,NW,318,4.0,5.0,57,0.00,CLR,,0.00,WeatherDisplay:10.37,2013-04-26 12:45:00,
2013-04-26 08:51:00,47.3,32.4,30.32,NW,317,1.4,2.3,56,0.00,CLR,,0.00,WeatherDisplay:10.37,2013-04-26 12:51:00,
2013-04-26 08:56:00,48.0,32.6,30.32,North,351,4.8,6.9,55,0.00,CLR,,0.00,WeatherDisplay:10.37,2013-04-26 12:56:00,
2013-04-26 09:01:00,48.3,32.9,30.32,ENE,64,1.9,6.9,55,0.00,CLR,,0.00,WeatherDisplay:10.37,2013-04-26 13:01:00,
2013-04-26 09:06:00,48.9,33.9,30.32,NW,325,5.0,6.0,56,0.00,CLR,,0.00,WeatherDisplay:10.37,2013-04-26 13:06:00,
2013-04-26 09:11:00,49.5,35.3,30.33,West,275,0.3,3.5,58,0.00,CLR,,0.00,WeatherDisplay:10.37,2013-04-26 13:11:00,
2013-04-26 09:17:00,50.2,34.2,30.33,NNE,24,5.3,10.4,54,0.00,CLR,,0.00,WeatherDisplay:10.37,2013-04-26 13:17:00,
2013-04-26 09:22:00,50.5,33.0,30.32,NNE,25,6.5,12.7,51,0.00,CLR,,0.00,WeatherDisplay:10.37,2013-04-26 13:22:00,
2013-04-26 09:27:00,51.0,34.5,30.32,NNE,23,6.5,8.1,53,0.00,CLR,,0.00,WeatherDisplay:10.37,2013-04-26 13:27:00,
2013-04-26 09:32:00,51.4,34.3,30.32,NE,44,7.8,11.5,52,0.00,CLR,,0.00,WeatherDisplay:10.37,2013-04-26 13:32:00,
2013-04-26 09:38:00,52.0,34.9,30.32,NNE,18,3.9,7.0,52,0.00,CLR,,0.00,WeatherDisplay:10.37,2013-04-26 13:38:00,
2013-04-26 09:43:00,52.6,35.5,30.32,NW,317,5.3,6.9,52,0.00,CLR,,0.00,WeatherDisplay:10.37,2013-04-26 13:43:00,
2013-04-26 09:48:00,53.1,34.9,30.33,NE,39,6.9,11.5,50,0.00,CLR,,0.00,WeatherDisplay:10.37,2013-04-26 13:48:00,
2013-04-26 09:53:00,53.1,34.4,30.32,North,5,8.1,11.5,49,0.00,CLR,,0.00,WeatherDisplay:10.37,2013-04-26 13:53:00,
2013-04-26 09:59:00,53.2,33.5,30.32,NNE,13,3.0,5.8,47,0.00,CLR,,0.00,WeatherDisplay:10.37,2013-04-26 13:59:00,
2013-04-26 10:04:00,53.5,34.3,30.33,North,355,2.2,10.4,48,0.00,CLR,,0.00,WeatherDisplay:10.37,2013-04-26 14:04:00,
2013-04-26 10:09:00,53.9,33.0,30.33,NNE,30,4.1,9.2,45,0.00,CLR,,0.00,WeatherDisplay:10.37,2013-04-26 14:09:00,
2013-04-26 10:14:00,54.2,34.9,30.33,NW,304,5.0,5.0,48,0.00,CLR,,0.00,WeatherDisplay:10.37,2013-04-26 14:14:00,
2013-04-26 10:19:00,54.4,34.0,30.33,NNE,26,5.2,9.2,46,0.00,CLR,,0.00,WeatherDisplay:10.37,2013-04-26 14:19:00,
2013-04-26 10:25:00,54.4,34.6,30.33,NNW,328,5.4,11.5,47,0.00,CLR,,0.00,WeatherDisplay:10.37,2013-04-26 14:25:00,
2013-04-26 10:30:00,54.4,34.0,30.33,NNE,32,3.5,5.8,46,0.00,CLR,,0.00,WeatherDisplay:10.37,2013-04-26 14:30:00,
2013-04-26 10:35:00,55.1,35.2,30.33,North,360,3.4,4.6,47,0.00,CLR,,0.00,WeatherDisplay:10.37,2013-04-26 14:35:00,
2013-04-26 10:40:00,55.6,35.7,30.33,NNE,29,2.7,8.0,47,0.00,CLR,,0.00,WeatherDisplay:10.37,2013-04-26 14:40:00,
2013-04-26 10:46:00,55.7,35.8,30.33,ENE,70,5.3,13.0,47,0.00,CLR,,0.00,WeatherDisplay:10.37,2013-04-26 14:46:00,
2013-04-26 10:51:00,56.3,36.8,30.33,NNW,335,3.3,3.5,48,0.00,CLR,,0.00,WeatherDisplay:10.37,2013-04-26 14:51:00,
2013-04-26 10:56:00,56.2,35.7,30.33,NNW,327,7.6,8.1,46,0.00,CLR,,0.00,WeatherDisplay:10.37,2013-04-26 14:56:00,
2013-04-26 11:01:00,56.0,36.0,30.33,NW,314,5.8,5.8,47,0.00,CLR,,0.00,WeatherDisplay:10.37,2013-04-26 15:01:00,
2013-04-26 11:06:00,56.0,35.5,30.33,NNE,28,4.4,9.2,46,0.00,CLR,,0.00,WeatherDisplay:10.37,2013-04-26 15:06:00,
2013-04-26 11:12:00,56.2,36.2,30.33,NW,317,2.8,3.5,47,0.00,CLR,,0.00,WeatherDisplay:10.37,2013-04-26 15:12:00,
2013-04-26 11:17:00,56.3,35.8,30.33,ENE,70,4.1,5.8,46,0.00,CLR,,0.00,WeatherDisplay:10.37,2013-04-26 15:17:00,
2013-04-26 11:22:00,56.7,36.1,30.33,NNW,333,1.9,3.5,46,0.00,CLR,,0.00,WeatherDisplay:10.37,2013-04-26 15:22:00,
2013-04-26 11:27:00,57.2,35.5,30.33,NE,44,4.5,6.9,44,0.00,CLR,,0.00,WeatherDisplay:10.37,2013-04-26 15:27:00,
2013-04-26 11:32:00,57.5,36.9,30.32,NW,312,3.8,6.9,46,0.00,CLR,,0.00,WeatherDisplay:10.37,2013-04-26 15:32:00,
2013-04-26 11:38:00,57.6,37.0,30.32,NW,325,1.9,5.0,46,0.00,CLR,,0.00,WeatherDisplay:10.37,2013-04-26 15:38:00,
2013-04-26 11:43:00,57.5,34.0,30.32,NNE,29,2.3,8.1,41,0.00,CLR,,0.00,WeatherDisplay:10.37,2013-04-26 15:43:00,
2013-04-26 11:48:00,58.0,37.3,30.32,North,360,4.0,11.5,46,0.00,CLR,,0.00,WeatherDisplay:10.37,2013-04-26 15:48:00,
2013-04-26 11:53:00,58.4,35.4,30.32,NE,42,8.7,10.4,42,0.00,CLR,,0.00,WeatherDisplay:10.37,2013-04-26 15:53:00,
2013-04-26 11:58:00,58.6,36.7,30.31,NNW,328,3.4,6.9,44,0.00,CLR,,0.00,WeatherDisplay:10.37,2013-04-26 15:58:00,
2013-04-26 12:04:00,58.4,35.4,30.31,ENE,61,8.4,11.5,42,0.00,CLR,,0.00,WeatherDisplay:10.37,2013-04-26 16:04:00,
2013-04-26 12:09:00,58.4,34.8,30.31,NNE,30,2.8,4.6,41,0.00,CLR,,0.00,WeatherDisplay:10.37,2013-04-26 16:09:00,
2013-04-26 12:14:00,58.4,35.4,30.31,NNE,28,6.9,11.5,42,0.00,CLR,,0.00,WeatherDisplay:10.37,2013-04-26 16:14:00,
2013-04-26 12:19:00,58.9,37.6,30.31,North,355,6.2,9.2,45,0.00,CLR,,0.00,WeatherDisplay:10.37,2013-04-26 16:19:00,
2013-04-26 12:24:00,58.9,35.8,30.31,NE,53,4.6,10.4,42,0.00,CLR,,0.00,WeatherDisplay:10.37,2013-04-26 16:24:00,
2013-04-26 12:29:00,59.2,35.5,30.31,North,5,5.7,6.9,41,0.00,CLR,,0.00,WeatherDisplay:10.37,2013-04-26 16:29:00,
2013-04-26 12:34:00,59.3,35.6,30.31,NNE,13,2.4,9.2,41,0.00,CLR,,0.00,WeatherDisplay:10.37,2013-04-26 16:34:00,
2013-04-26 12:40:00,59.5,35.1,30.31,SE,133,4.8,10.4,40,0.00,CLR,,0.00,WeatherDisplay:10.37,2013-04-26 16:40:00,
2013-04-26 12:45:00,59.6,35.2,30.31,NNE,28,5.4,13.8,40,0.00,CLR,,0.00,WeatherDisplay:10.37,2013-04-26 16:45:00,
2013-04-26 12:50:00,59.9,37.3,30.30,NE,41,1.8,5.8,43,0.00,CLR,,0.00,WeatherDisplay:10.37,2013-04-26 16:50:00,
2013-04-26 12:55:00,60.5,37.9,30.30,North,11,3.9,8.1,43,0.00,CLR,,0.00,WeatherDisplay:10.37,2013-04-26 16:55:00,
2013-04-26 13:00:00,60.9,37.0,30.30,NE,40,3.3,6.9,41,0.00,CLR,,0.00,WeatherDisplay:10.37,2013-04-26 17:00:00,
2013-04-26 13:05:00,60.9,35.8,30.30,NNE,25,6.3,11.5,39,0.00,CLR,,0.00,WeatherDisplay:10.37,2013-04-26 17:05:00,
2013-04-26 13:11:00,61.3,36.8,30.30,NE,45,3.8,6.9,40,0.00,CLR,,0.00,WeatherDisplay:10.37,2013-04-26 17:11:00,
2013-04-26 13:16:00,61.5,36.9,30.30,NNW,348,4.9,11.5,40,0.00,CLR,,0.00,WeatherDisplay:10.37,2013-04-26 17:16:00,
2013-04-26 13:21:00,61.0,35.2,30.30,NNE,33,4.4,6.9,38,0.00,CLR,,0.00,WeatherDisplay:10.37,2013-04-26 17:21:00,
2013-04-26 13:26:00,60.2,34.5,30.30,NNE,28,4.0,5.8,38,0.00,CLR,,0.00,WeatherDisplay:10.37,2013-04-26 17:26:00,
2013-04-26 13:31:00,59.9,34.9,30.30,NNE,25,0.0,1.0,39,0.00,CLR,,0.00,WeatherDisplay:10.37,2013-04-26 17:31:00,
2013-04-26 13:36:00,60.2,36.4,30.30,NNW,346,3.9,11.5,41,0.00,CLR,,0.00,WeatherDisplay:10.37,2013-04-26 17:36:00,
2013-04-26 13:42:00,60.4,35.3,30.30,NE,54,3.5,5.0,39,0.00,CLR,,0.00,WeatherDisplay:10.37,2013-04-26 17:42:00,
2013-04-26 13:47:00,60.5,35.4,30.29,NNE,13,2.8,3.5,39,0.00,CLR,,0.00,WeatherDisplay:10.37,2013-04-26 17:47:00,
2013-04-26 13:52:00,61.3,36.8,30.29,North,355,4.9,8.1,40,0.00,CLR,,0.00,WeatherDisplay:10.37,2013-04-26 17:52:00,
2013-04-26 13:57:00,61.5,35.6,30.29,NNE,15,2.1,4.6,38,0.00,CLR,,0.00,WeatherDisplay:10.37,2013-04-26 17:57:00,
2013-04-26 14:03:00,62.0,35.4,30.29,WNW,289,2.4,4.6,37,0.00,CLR,,0.00,WeatherDisplay:10.37,2013-04-26 18:03:00,
2013-04-26 14:08:00,62.6,36.6,30.29,NW,319,6.7,11.5,38,0.00,CLR,,0.00,WeatherDisplay:10.37,2013-04-26 18:08:00,
2013-04-26 14:13:00,62.6,35.3,30.29,NNE,14,3.5,11.5,36,0.00,CLR,,0.00,WeatherDisplay:10.37,2013-04-26 18:13:00,
2013-04-26 14:18:00,62.4,36.4,30.29,NW,319,3.2,5.0,38,0.00,CLR,,0.00,WeatherDisplay:10.37,2013-04-26 18:18:00,
2013-04-26 14:23:00,62.1,36.8,30.29,East,81,1.2,4.6,39,0.00,CLR,,0.00,WeatherDisplay:10.37,2013-04-26 18:23:00,
2013-04-26 14:29:00,62.4,32.9,30.29,NW,321,1.0,3.5,33,0.00,CLR,,0.00,WeatherDisplay:10.37,2013-04-26 18:29:00,
2013-04-26 14:34:00,62.6,35.9,30.29,North,349,8.6,11.5,37,0.00,CLR,,0.00,WeatherDisplay:10.37,2013-04-26 18:34:00,
2013-04-26 14:39:00,62.4,35.1,30.29,WNW,300,2.0,4.0,36,0.00,CLR,,0.00,WeatherDisplay:10.37,2013-04-26 18:39:00,
2013-04-26 14:45:00,63.2,35.1,30.29,WNW,299,4.1,9.2,35,0.00,CLR,,0.00,WeatherDisplay:10.37,2013-04-26 18:45:00,
2013-04-26 14:50:00,63.4,33.8,30.29,WNW,296,7.6,11.5,33,0.00,CLR,,0.00,WeatherDisplay:10.37,2013-04-26 18:50:00,
2013-04-26 14:55:00,63.1,34.3,30.29,NE,42,5.0,10.0,34,0.00,CLR,,0.00,WeatherDisplay:10.37,2013-04-26 18:55:00,
2013-04-26 15:00:00,62.3,32.0,30.29,NW,314,1.1,3.5,32,0.00,CLR,,0.00,WeatherDisplay:10.37,2013-04-26 19:00:00,
2013-04-26 15:05:00,61.8,32.4,30.28,NE,39,8.3,11.5,33,0.00,CLR,,0.00,WeatherDisplay:10.37,2013-04-26 19:05:00,
2013-04-26 15:11:00,61.6,30.6,30.28,NNW,335,6.4,6.9,31,0.00,CLR,,0.00,WeatherDisplay:10.37,2013-04-26 19:11:00,
2013-04-26 15:16:00,62.1,35.5,30.28,NNW,327,5.7,11.5,37,0.00,CLR,,0.00,WeatherDisplay:10.37,2013-04-26 19:16:00,
2013-04-26 15:21:00,62.1,30.3,30.28,NNE,18,0.8,3.5,30,0.00,CLR,,0.00,WeatherDisplay:10.37,2013-04-26 19:21:00,
2013-04-26 15:26:00,62.0,30.2,30.28,NNE,25,7.0,11.5,30,0.00,CLR,,0.00,WeatherDisplay:10.37,2013-04-26 19:26:00,
2013-04-26 15:31:00,62.0,32.5,30.28,NNE,24,3.1,4.6,33,0.00,CLR,,0.00,WeatherDisplay:10.37,2013-04-26 19:31:00,
2013-04-26 15:36:00,62.4,31.3,30.28,NNE,13,1.5,3.5,31,0.00,CLR,,0.00,WeatherDisplay:10.37,2013-04-26 19:36:00,
2013-04-26 15:41:00,62.7,31.6,30.28,ENE,69,4.9,9.2,31,0.00,CLR,,0.00,WeatherDisplay:10.37,2013-04-26 19:41:00,
2013-04-26 15:47:00,62.9,31.8,30.28,North,360,3.3,10.4,31,0.00,CLR,,0.00,WeatherDisplay:10.37,2013-04-26 19:47:00,
2013-04-26 15:52:00,62.4,30.5,30.28,North,9,8.7,12.7,30,0.00,CLR,,0.00,WeatherDisplay:10.37,2013-04-26 19:52:00,
2013-04-26 15:57:00,62.0,31.8,30.28,NW,314,1.7,4.6,32,0.00,CLR,,0.00,WeatherDisplay:10.37,2013-04-26 19:57:00,
2013-04-26 16:02:00,62.6,31.5,30.28,NE,46,2.0,4.6,31,0.00,CLR,,0.00,WeatherDisplay:10.37,2013-04-26 20:02:00,
2013-04-26 16:07:00,62.9,31.0,30.28,NW,315,8.0,12.0,30,0.00,CLR,,0.00,WeatherDisplay:10.37,2013-04-26 20:07:00,
2013-04-26 16:13:00,63.1,29.4,30.28,NW,304,2.3,4.6,28,0.00,CLR,,0.00,WeatherDisplay:10.37,2013-04-26 20:13:00,
2013-04-26 16:18:00,63.4,29.7,30.28,West,259,5.8,11.5,28,0.00,CLR,,0.00,WeatherDisplay:10.37,2013-04-26 20:18:00,
2013-04-26 16:23:00,63.4,28.8,30.28,WNW,288,2.4,5.0,27,0.00,CLR,,0.00,WeatherDisplay:10.37,2013-04-26 20:23:00,
2013-04-26 16:28:00,63.1,30.3,30.28,NNE,25,3.6,8.1,29,0.00,CLR,,0.00,WeatherDisplay:10.37,2013-04-26 20:28:00,
2013-04-26 16:33:00,62.0,30.2,30.28,NW,307,8.3,9.2,30,0.00,CLR,,0.00,WeatherDisplay:10.37,2013-04-26 20:33:00,
2013-04-26 16:39:00,61.8,30.8,30.28,NNW,327,3.4,6.9,31,0.00,CLR,,0.00,WeatherDisplay:10.37,2013-04-26 20:39:00,
2013-04-26 16:44:00,61.6,29.8,30.28,NNW,334,1.6,3.5,30,0.00,CLR,,0.00,WeatherDisplay:10.37,2013-04-26 20:44:00,
2013-04-26 16:49:00,61.8,30.0,30.28,NNW,327,4.5,5.8,30,0.00,CLR,,0.00,WeatherDisplay:10.37,2013-04-26 20:49:00,
2013-04-26 16:54:00,62.0,31.0,30.28,NE,44,4.8,9.2,31,0.00,CLR,,0.00,WeatherDisplay:10.37,2013-04-26 20:54:00,
2013-04-26 16:59:00,62.0,30.2,30.28,West,279,3.5,10.4,30,0.00,CLR,,0.00,WeatherDisplay:10.37,2013-04-26 20:59:00,
2013-04-26 17:05:00,61.8,31.6,30.28,West,279,2.3,3.5,32,0.00,CLR,,0.00,WeatherDisplay:10.37,2013-04-26 21:05:00,
2013-04-26 17:10:00,61.8,29.2,30.28,West,269,3.8,9.2,29,0.00,CLR,,0.00,WeatherDisplay:10.37,2013-04-26 21:10:00,
2013-04-26 17:15:00,62.0,30.2,30.28,NNW,327,4.5,8.1,30,0.00,CLR,,0.00,WeatherDisplay:10.37,2013-04-26 21:15:00,
2013-04-26 17:20:00,61.6,29.8,30.28,WNW,297,1.0,3.5,30,0.00,CLR,,0.00,WeatherDisplay:10.37,2013-04-26 21:20:00,
2013-04-26 17:25:00,61.6,31.4,30.28,NE,35,2.0,4.0,32,0.00,CLR,,0.00,WeatherDisplay:10.37,2013-04-26 21:25:00,
2013-04-26 17:30:00,61.5,31.3,30.28,NW,322,5.3,10.4,32,0.00,CLR,,0.00,WeatherDisplay:10.37,2013-04-26 21:30:00,
2013-04-26 17:36:00,61.3,29.6,30.28,NNE,30,0.4,2.3,30,0.00,CLR,,0.00,WeatherDisplay:10.37,2013-04-26 21:36:00,
2013-04-26 17:41:00,61.2,29.5,30.28,North,5,5.2,10.4,30,0.00,CLR,,0.00,WeatherDisplay:10.37,2013-04-26 21:41:00,
2013-04-26 17:46:00,61.2,30.3,30.28,NNW,331,3.2,5.8,31,0.00,CLR,,0.00,WeatherDisplay:10.37,2013-04-26 21:46:00,
2013-04-26 17:51:00,61.2,31.1,30.28,NW,309,5.4,6.9,32,0.00,CLR,,0.00,WeatherDisplay:10.37,2013-04-26 21:51:00,
2013-04-26 17:56:00,61.2,30.3,30.28,North,355,4.0,9.2,31,0.00,CLR,,0.00,WeatherDisplay:10.37,2013-04-26 21:56:00,
2013-04-26 18:01:00,61.0,30.1,30.29,WNW,285,4.1,6.9,31,0.00,CLR,,0.00,WeatherDisplay:10.37,2013-04-26 22:01:00,
2013-04-26 18:06:00,60.9,29.2,30.29,North,5,1.8,4.6,30,0.00,CLR,,0.00,WeatherDisplay:10.37,2013-04-26 22:06:00,
2013-04-26 18:11:00,60.7,29.9,30.29,NW,323,1.4,5.8,31,0.00,CLR,,0.00,WeatherDisplay:10.37,2013-04-26 22:11:00,
2013-04-26 18:16:00,60.7,31.4,30.29,NNW,344,1.1,3.5,33,0.00,CLR,,0.00,WeatherDisplay:10.37,2013-04-26 22:16:00,
2013-04-26 18:22:00,60.4,29.6,30.29,North,11,4.3,10.4,31,0.00,CLR,,0.00,WeatherDisplay:10.37,2013-04-26 22:22:00,
2013-04-26 18:27:00,59.9,29.9,30.29,NE,35,3.7,4.6,32,0.00,CLR,,0.00,WeatherDisplay:10.37,2013-04-26 22:27:00,
2013-04-26 18:32:00,59.8,30.6,30.29,NE,44,3.4,8.1,33,0.00,CLR,,0.00,WeatherDisplay:10.37,2013-04-26 22:32:00,
2013-04-26 18:37:00,59.5,29.6,30.29,NE,38,6.8,10.4,32,0.00,CLR,,0.00,WeatherDisplay:10.37,2013-04-26 22:37:00,
2013-04-26 18:43:00,59.2,30.1,30.30,NNE,23,2.3,11.5,33,0.00,CLR,,0.00,WeatherDisplay:10.37,2013-04-26 22:43:00,
2013-04-26 18:48:00,59.0,29.9,30.30,NNE,22,3.8,5.8,33,0.00,CLR,,0.00,WeatherDisplay:10.37,2013-04-26 22:48:00,
2013-04-26 18:53:00,58.7,29.6,30.30,NNE,14,5.0,11.5,33,0.00,CLR,,0.00,WeatherDisplay:10.37,2013-04-26 22:53:00,
2013-04-26 18:58:00,58.4,30.1,30.30,NNE,19,2.7,3.5,34,0.00,CLR,,0.00,WeatherDisplay:10.37,2013-04-26 22:58:00,
2013-04-26 19:03:00,58.1,29.8,30.30,North,5,5.0,7.0,34,0.00,CLR,,0.00,WeatherDisplay:10.37,2013-04-26 23:03:00,
2013-04-26 19:09:00,57.6,30.1,30.30,NNE,30,4.3,8.1,35,0.00,CLR,,0.00,WeatherDisplay:10.37,2013-04-26 23:09:00,
2013-04-26 19:14:00,57.3,30.5,30.30,North,360,3.9,5.8,36,0.00,CLR,,0.00,WeatherDisplay:10.37,2013-04-26 23:14:00,
2013-04-26 19:19:00,57.0,30.3,30.30,NNE,15,3.6,5.8,36,0.00,CLR,,0.00,WeatherDisplay:10.37,2013-04-26 23:19:00,
2013-04-26 19:24:00,56.7,30.0,30.30,NNE,25,8.4,13.8,36,0.00,CLR,,0.00,WeatherDisplay:10.37,2013-04-26 23:24:00,
2013-04-26 19:29:00,56.5,30.5,30.31,NNE,23,2.1,4.6,37,0.00,CLR,,0.00,WeatherDisplay:10.37,2013-04-26 23:29:00,
2013-04-26 19:35:00,56.2,30.2,30.31,North,360,5.6,10.4,37,0.00,CLR,,0.00,WeatherDisplay:10.37,2013-04-26 23:35:00,
2013-04-26 19:40:00,55.9,30.0,30.31,NNE,16,5.8,10.4,37,0.00,CLR,,0.00,WeatherDisplay:10.37,2013-04-26 23:40:00,
2013-04-26 19:45:00,55.6,30.4,30.31,NNE,19,3.7,4.6,38,0.00,CLR,,0.00,WeatherDisplay:10.37,2013-04-26 23:45:00,
2013-04-26 19:50:00,55.3,30.7,30.31,NNE,23,2.0,4.0,39,0.00,CLR,,0.00,WeatherDisplay:10.37,2013-04-26 23:50:00,
2013-04-26 20:05:00,54.2,31.0,30.32,North,355,4.2,9.2,41,0.00,CLR,,0.00,WeatherDisplay:10.37,2013-04-27 00:05:00,
2013-04-26 20:10:00,53.9,30.7,30.32,North,9,4.0,8.1,41,0.00,CLR,,0.00,WeatherDisplay:10.37,2013-04-27 00:10:00,
2013-04-26 20:16:00,53.6,31.0,30.32,NNE,30,3.3,6.9,42,0.00,CLR,,0.00,WeatherDisplay:10.37,2013-04-27 00:16:00,
2013-04-26 20:21:00,53.3,30.8,30.32,NNE,15,4.2,5.8,42,0.00,CLR,,0.00,WeatherDisplay:10.37,2013-04-27 00:21:00,
2013-04-26 20:26:00,53.2,31.3,30.32,NNE,26,2.3,3.5,43,0.00,CLR,,0.00,WeatherDisplay:10.37,2013-04-27 00:26:00,
2013-04-26 20:31:00,52.9,31.0,30.32,NNE,26,1.2,3.5,43,0.00,CLR,,0.00,WeatherDisplay:10.37,2013-04-27 00:31:00,
2013-04-26 20:36:00,52.6,31.3,30.32,NNW,336,5.4,6.9,44,0.00,CLR,,0.00,WeatherDisplay:10.37,2013-04-27 00:36:00,
2013-04-26 20:42:00,52.5,31.2,30.32,North,355,5.0,11.5,44,0.00,CLR,,0.00,WeatherDisplay:10.37,2013-04-27 00:42:00,
2013-04-26 20:47:00,52.3,31.6,30.33,NE,40,1.9,5.8,45,0.00,CLR,,0.00,WeatherDisplay:10.37,2013-04-27 00:47:00,
2013-04-26 20:52:00,52.0,30.7,30.33,NE,34,2.0,5.8,44,0.00,CLR,,0.00,WeatherDisplay:10.37,2013-04-27 00:52:00,
2013-04-26 20:58:00,51.9,31.2,30.33,NE,41,3.4,7.0,45,0.00,CLR,,0.00,WeatherDisplay:10.37,2013-04-27 00:58:00,
2013-04-26 21:03:00,51.7,31.0,30.34,NE,47,4.6,5.0,45,0.00,CLR,,0.00,WeatherDisplay:10.37,2013-04-27 01:03:00,
2013-04-26 21:08:00,51.4,31.3,30.34,NE,36,2.3,3.5,46,0.00,CLR,,0.00,WeatherDisplay:10.37,2013-04-27 01:08:00,
2013-04-26 21:13:00,51.3,31.2,30.34,NNE,28,3.7,5.8,46,0.00,CLR,,0.00,WeatherDisplay:10.37,2013-04-27 01:13:00,
2013-04-26 21:18:00,51.0,30.9,30.34,NNE,32,2.4,4.6,46,0.00,CLR,,0.00,WeatherDisplay:10.37,2013-04-27 01:18:00,
2013-04-26 21:23:00,50.8,30.7,30.34,ENE,58,2.3,4.0,46,0.00,CLR,,0.00,WeatherDisplay:10.37,2013-04-27 01:23:00,
2013-04-26 21:28:00,50.7,30.7,30.34,NNE,31,2.9,4.6,46,0.00,CLR,,0.00,WeatherDisplay:10.37,2013-04-27 01:28:00,
2013-04-26 21:33:00,50.7,30.1,30.35,NE,36,2.2,5.0,45,0.00,CLR,,0.00,WeatherDisplay:10.37,2013-04-27 01:33:00,
2013-04-26 21:39:00,50.5,29.9,30.35,NE,50,2.4,4.6,45,0.00,CLR,,0.00,WeatherDisplay:10.37,2013-04-27 01:39:00,
2013-04-26 21:44:00,50.4,30.9,30.34,ENE,72,1.3,2.3,47,0.00,CLR,,0.00,WeatherDisplay:10.37,2013-04-27 01:44:00,
2013-04-26 21:52:00,49.9,29.9,30.35,NNE,25,2.9,5.0,46,0.00,CLR,,0.00,WeatherDisplay:10.37,2013-04-27 01:52:00,
2013-04-26 21:59:00,49.6,30.2,30.35,NE,47,2.3,3.5,47,0.00,CLR,,0.00,WeatherDisplay:10.37,2013-04-27 01:59:00,
2013-04-26 22:04:00,49.5,30.1,30.35,NE,37,0.0,2.3,47,0.00,CLR,,0.00,WeatherDisplay:10.37,2013-04-27 02:04:00,
2013-04-26 22:09:00,49.4,30.0,30.35,NE,37,2.2,3.5,47,0.00,CLR,,0.00,WeatherDisplay:10.37,2013-04-27 02:09:00,
2013-04-26 22:14:00,49.2,29.8,30.35,NE,37,0.0,0.0,47,0.00,CLR,,0.00,WeatherDisplay:10.37,2013-04-27 02:14:00,
2013-04-26 22:19:00,48.9,29.5,30.35,NE,37,1.6,3.5,47,0.00,CLR,,0.00,WeatherDisplay:10.37,2013-04-27 02:19:00,
2013-04-26 22:24:00,48.8,30.5,30.35,NE,37,0.5,2.3,49,0.00,CLR,,0.00,WeatherDisplay:10.37,2013-04-27 02:24:00,
2013-04-26 22:29:00,48.6,30.3,30.35,NE,41,0.7,2.0,49,0.00,CLR,,0.00,WeatherDisplay:10.37,2013-04-27 02:29:00,
2013-04-26 22:35:00,48.5,29.7,30.35,NE,40,0.9,4.6,48,0.00,CLR,,0.00,WeatherDisplay:10.37,2013-04-27 02:35:00,
2013-04-26 22:40:00,48.3,29.5,30.35,NE,40,0.2,1.1,48,0.00,CLR,,0.00,WeatherDisplay:10.37,2013-04-27 02:40:00,
2013-04-26 22:45:00,48.2,30.4,30.35,NE,40,0.0,0.0,50,0.00,CLR,,0.00,WeatherDisplay:10.37,2013-04-27 02:45:00,
2013-04-26 22:50:00,47.7,30.4,30.35,NE,40,1.3,3.5,51,0.00,CLR,,0.00,WeatherDisplay:10.37,2013-04-27 02:50:00,
2013-04-26 22:55:00,47.6,29.9,30.35,NE,40,0.2,1.0,50,0.00,CLR,,0.00,WeatherDisplay:10.37,2013-04-27 02:55:00,
2013-04-26 23:00:00,47.4,30.2,30.35,NE,40,0.0,0.0,51,0.00,CLR,,0.00,WeatherDisplay:10.37,2013-04-27 03:00:00,
2013-04-26 23:06:00,47.3,29.6,30.35,NE,40,0.0,0.0,50,0.00,CLR,,0.00,WeatherDisplay:10.37,2013-04-27 03:06:00,
2013-04-26 23:11:00,47.1,29.9,30.35,NE,40,0.0,0.0,51,0.00,CLR,,0.00,WeatherDisplay:10.37,2013-04-27 03:11:00,
2013-04-26 23:16:00,47.0,29.3,30.35,NE,40,0.0,0.0,50,0.00,CLR,,0.00,WeatherDisplay:10.37,2013-04-27 03:16:00,
2013-04-26 23:21:00,47.0,29.3,30.35,NE,40,0.0,0.0,50,0.00,CLR,,0.00,WeatherDisplay:10.37,2013-04-27 03:21:00,
2013-04-26 23:27:00,46.8,29.1,30.35,NE,40,0.0,0.0,50,0.00,CLR,,0.00,WeatherDisplay:10.37,2013-04-27 03:27:00,
2013-04-26 23:32:00,46.8,29.1,30.35,NE,40,0.0,0.0,50,0.00,CLR,,0.00,WeatherDisplay:10.37,2013-04-27 03:32:00,
2013-04-26 23:37:00,46.8,29.1,30.36,NE,40,0.0,1.1,50,0.00,CLR,,0.00,WeatherDisplay:10.37,2013-04-27 03:37:00,
2013-04-26 23:42:00,46.7,29.0,30.36,NE,40,0.0,1.1,50,0.00,CLR,,0.00,WeatherDisplay:10.37,2013-04-27 03:42:00,
2013-04-26 23:47:00,46.5,29.3,30.36,NE,40,0.4,2.0,51,0.00,CLR,,0.00,WeatherDisplay:10.37,2013-04-27 03:47:00,
2013-04-26 23:53:00,46.5,29.3,30.36,NE,40,2.1,2.3,51,0.00,CLR,,0.00,WeatherDisplay:10.37,2013-04-27 03:53:00,
2013-04-26 23:58:00,46.5,28.8,30.36,NE,40,2.5,4.0,50,0.00,CLR,,0.00,WeatherDisplay:10.37,2013-04-27 03:58:00,